BREEZE-M R/B, 42909

Orbit data source: Space-Track

BREEZE-M R/B, 42909 is space debris in GEO originally from a launch on Wed, 16 Aug 2017 UTC launched from the Tyuratam Missile And Space Complex (TTMTR). Debris objects in space refer to the collection of defunct objects orbiting the Earth. Examples of debris include non-operational satellites, rocket bodies, and fragments generated from explosions, collisions, or faulty payload assembly.

Not visible in the next 10 days
Identifier
42909, 2017-046C
Orbit
GEO
Last TLE update
1 day ago
Origin
Manufacturer
Khrunichev
Mission
Spacecraft
Bus & Motor
BRIZ, Unknown motor
Mass
~1,600 kg wet, 1,600 kg dry
Launch date (UTC)
2017-08-16 (8 years ago)
Launch vehicle
Unknown
Launch site
Tyuratam Missile And Space Complex (TTMTR)
Object type
Payload
Rocket body
Debris
Shape & HBR
Cyl, 4 m
Radar Cross Section
14.451 m²

Expand to show TLE details & history

TLE from 1 day ago
0 BREEZE-M R/B
1 42909U 17046C   25180.92674328 -.00000196  00000-0  00000-0 0  9996
2 42909   7.6951  71.8568 0746152 153.1097 210.8102  0.90332911 25975
Epoch: 2025-06-29T22:14Z
TLE epoch observation values (Epoch: 2025-06-29T22:14:30.619Z)
Latitude
0.00001°
Longitude
179.9055°
Altitude
41,781.396 km
Speed
2.781 km/s
True Right ascension
04h 47m 06s
True Declination
0° 00' 00"
Sunlit
Object was in daylight at epoch
Visualization orbit readout
Latitude
7.15031°
Longitude
-67.76155°
Altitude
36,190.593 km
Speed
3.148 km/s
Apparent Right ascension
11h 57m 01s
Apparent Declination
1° 32' 29"
Sunlit
Object is in daylight
Visualization observer readout
Local Sidereal Time
20:49:34
Azimuth
302.192° NW
Elevation
-30.463°
Doppler factor
1
Orbital elements
Apogee altitude
42,199.189 km
Perigee altitude
35,453.319 km
Semi-major axis
45,204.391 km
Eccentricity
0.07462
Inclination
7.6951°
RAAN
71.8568°
Arg. of periapsis
153.1097°
True anomaly
Unknown
Mean anomaly
210.8102°
Eccentric anomaly
Unknown
Mean motion
0.22583 °/min
Orbital period
1,594.15 mins
BSTAR
0
Loading historical data...
42909 neighbors
Loading maneuver chart data...
Loading SW <> Apogee altitude chart data...
Loading historical data...
Loading historical data...
Loading historical data...
Loading historical data...
Loading historical data...
Loading historical data...
Loading historical data...
Other satellites on launch #46 in the year 2017 (2017-08-16 UTC)

BREEZE-M R/B Visibility

Observer location: undefined°, undefined°

BREEZE-M R/B is likely not visible in the next few days
Span
Click to sort rows by Start time (UTC) header in descending order
Start Az.
Max El. time (UTC)
Max El. Az.
Max El.
End time (UTC)
End Az.
|